GFSSW_con_mlcape_162.txt.gz
CAPE
0 0 0 0 1 2 2 2 1 2 2 1 1 1 1 0 0 0 0 0 0 0 0 0 0 0 0 0 0 0 0 0 0 0 0 0 0 0 0 0 0 0 0 0 573
1 0 0 1 2 2 3 4 4 3 2 1 1 1 0 0 0 0 0 0 0 0 0 0 0 0 0 0 0 0 0 0 0 0 0 0 0 0 0 0 0 0 0 0 9
2 1 2 2 3 2 6 5 5 2 1 1 1 1 0 0 0 0 0 0 0 0 0 0 0 0 0 0 0 0 0 0 0 0 0 0 0 0 0 0 0 0 0 0 0
2 3 3 1 2 3 4 3 0 1 2 1 2 0 0 0 0 0 0 0 0 0 0 0 0 0 0 0 0 0 0 0 0 0 0 0 0 0 0 0 0 0 0 0 0
2 2 1 2 1 2 2 1 1 1 0 0 1 0 0 0 0 0 0 0 0 0 0 0 0 0 0 0 0 0 0 0 0 0 0 0 0 0 0 0 0 0 0 0 0
2 1 5 5 3 2 2 1 1 1 1 1 0 0 0 0 0 0 0 0 0 0 0 0 0 0 0 0 0 0 0 0 0 0 0 0 0 0 0 0 0 0 0 0 0
3 2 1 1 1 0 1 0 0 0 0 0 0 0 0 0 0 0 0 0 0 0 0 0 0 0 0 0 0 0 0 0 0 0 0 0 0 0 0 0 0 0 0 0 0
1 3 0 1 0 0 0 0 0 0 0 0 0 0 0 0 0 0 0 0 0 0 0 0 0 0 0 0 0 0 0 0 0 0 0 0 0 0 0 0 0 0 0 0 0
0 2 1 0 0 0 0 0 0 0 0 0 0 0 0 0 0 0 0 0 0 0 0 0 0 0 0 0 0 0 0 0 0 0 0 0 0 0 0 0 0 0 0 0 0
0 0 1 0 0 0 0 0 0 0 0 0 0 0 0 0 0 0 0 0 0 0 0 0 0 0 0 0 0 1 2 0 0 0 0 0 0 0 0 0 0 0 0 0 0
0 0 0 0 0 0 0 0 0 0 0 0 0 0 0 0 0 0 0 0 0 0 0 9 6 5 6 17 14 4 0 0 0 0 0 0 0 0 0 0 0 0 0 0 0
0 0 0 0 0 0 0 0 0 0 0 0 0 0 0 0 0 0 0 0 0 0 5 11 10 3 15 16 25 22 10 0 1 8 0 0 0 0 0 0 0 0 0 0 0
0 0 0 0 0 0 0 0 0 0 0 0 0 0 0 0 0 0 0 0 0 5 12 4 0 12 6 6 16 19 8 2 14 24 14 0 0 0 0 0 0 0 0 0 0
0 0 0 0 0 0 0 0 0 0 0 0 0 0 0 0 0 0 0 0 0 4 10 2 0 1 5 10 12 14 14 15 4 0 1 13 0 0 0 0 0 0 0 0 0
0 0 0 0 0 0 0 0 0 0 0 0 0 0 0 0 0 0 0 0 0 5 0 0 4 14 16 13 14 7 11 11 22 9 4 0 4 0 0 0 0 0 0 0 0
0 0 0 0 0 0 0 0 0 0 0 0 0 0 0 0 0 1 3 7 3 4 3 0 3 0 0 9 14 5 11 16 18 10 7 0 24 0 0 0 0 0 0 0 0
0 0 0 0 0 0 0 0 0 0 0 0 0 0 0 0 0 0 2 5 1 1 8 4 3 7 0 7 13 11 2 5 1 3 0 5 14 0 0 0 0 0 0 0 0
0 0 0 0 0 0 0 0 0 0 0 0 0 0 1 3 0 0 3 4 9 15 11 4 7 3 9 7 14 12 1 15 6 7 3 6 1 0 0 0 0 0 0 0 0
0 0 0 0 0 0 0 0 0 0 0 0 0 0 1 2 2 2 4 0 7 12 1 3 10 1 0 13 2 1 0 0 0 0 1 22 11 0 0 0 0 0 0 0 0
0 0 0 0 0 0 0 0 0 0 0 0 3 1 5 4 4 18 1 0 11 9 13 0 0 2 10 5 6 2 1 9 8 17 34 45 28 4 0 0 0 0 0 0 0
0 0 0 0 0 0 0 0 0 0 0 0 0 3 7 9 7 7 2 0 9 17 4 2 0 0 17 2 2 0 0 1 60 14 37 15 20 38 0 0 0 0 0 0 0
0 0 0 0 0 0 0 0 0 0 0 0 0 7 10 5 1 6 4 2 12 10 0 2 0 0 0 9 21 38 30 30 32 14 21 17 0 183 0 0 0 0 0 0 0
0 0 0 0 0 0 0 0 0 0 0 0 2 3 4 1 4 5 7 3 5 5 0 0 0 0 3 3 5 22 44 45 26 41 4 7 0 0 0 32 0 0 0 0 532
0 0 0 0 0 0 0 0 0 0 0 0 0 5 2 6 5 1 6 3 8 7 9 7 1 0 1 20 0 2 10 9 14 15 23 2 0 0 0 50 7 1 0 217 774
0 0 0 0 0 0 0 0 0 0 0 0 1 6 4 1 0 2 12 3 0 5 6 1 0 0 1 17 47 3 6 0 6 3 3 0 1 0 0 0 18 9 965 546 269
0 0 0 0 0 0 0 0 0 0 0 0 5 0 5 5 10 4 4 1 1 1 0 1 0 4 0 58 38 20 13 0 0 3 3 2 0 0 0 0 216 887 383 127 49
0 0 0 0 0 0 0 0 0 0 0 0 5 5 2 9 5 8 6 5 3 1 0 1 1 2 0 23 13 2 0 1 2 12 0 0 0 0 221 658 671 413 135 23 8

GFSSW_con_mlcape_165.txt.gz
CAPE
0 0 0 1 1 1 2 3 2 2 1 0 0 0 0 0 0 0 0 0 0 0 0 0 0 0 0 0 0 0 0 0 0 0 0 0 0 0 0 0 0 0 0 0 303
0 1 1 2 2 2 3 2 1 0 0 0 0 0 0 0 0 0 0 0 0 0 0 0 0 0 0 0 0 0 0 0 0 0 0 0 0 0 0 0 0 0 0 0 0
2 3 1 2 3 2 2 1 0 0 0 0 0 0 0 0 0 0 0 0 0 0 0 0 0 0 0 0 0 0 0 0 0 0 0 0 0 0 0 0 0 0 0 0 0
2 1 2 3 1 3 1 1 1 1 1 1 1 0 0 0 0 0 0 0 0 0 0 0 0 0 0 0 0 0 0 0 0 0 0 0 0 0 0 0 0 0 0 0 0
0 3 2 1 2 1 1 1 1 1 2 2 1 0 0 0 0 0 0 0 0 0 0 0 0 0 0 0 0 0 0 0 0 0 0 0 0 0 0 0 0 0 0 0 0
0 1 2 1 0 0 0 0 0 0 0 0 0 0 0 0 0 0 0 0 0 0 0 0 0 0 0 0 0 0 0 0 0 0 0 0 0 0 0 0 0 0 0 0 0
0 1 1 1 0 0 0 0 0 0 0 0 0 0 0 0 0 0 0 0 0 0 0 0 0 0 0 0 0 0 0 0 0 0 0 0 0 0 0 0 0 0 0 0 0
0 0 0 0 0 0 0 0 0 0 0 0 0 0 0 0 0 0 0 0 0 0 0 0 0 0 0 0 0 0 0 0 0 0 0 1 0 0 0 0 0 0 0 0 0
0 0 0 0 0 0 0 0 0 0 0 0 0 0 0 0 0 0 0 0 0 0 0 0 0 0 0 0 2 2 0 0 9 1 10 24 0 0 0 0 0 0 0 0 0
0 0 1 0 0 0 0 0 0 0 0 0 0 0 0 0 0 0 0 0 0 0 5 4 7 6 6 13 5 23 29 19 14 23 18 17 0 0 0 0 0 0 0 0 0
0 0 1 0 0 0 0 0 0 0 0 0 0 0 0 0 0 0 0 0 0 3 3 17 5 12 15 21 25 27 26 19 7 0 14 35 0 1 0 0 0 0 0 0 0
0 0 0 0 0 0 0 0 0 0 0 0 0 0 0 0 0 0 0 0 4 13 17 18 13 6 4 18 19 21 30 24 39 37 29 54 36 41 3 0 0 0 0 0 0
0 0 0 0 0 0 0 0 0 0 0 0 0 0 0 0 0 0 0 0 1 6 10 7 1 16 17 22 32 33 35 21 36 54 42 55 45 95 0 0 0 0 0 0 0
0 0 0 0 0 0 0 0 0 0 0 0 0 0 0 0 2 0 0 0 0 2 7 1 0 0 4 11 18 24 28 37 44 45 35 45 8 39 7 0 0 0 0 0 0
0 0 0 0 0 0 0 0 0 0 0 0 0 0 0 0 0 1 0 0 7 9 3 0 7 5 6 18 16 10 43 42 48 44 28 3 33 0 91 32 0 0 0 0 0
0 0 0 0 0 0 0 0 0 0 0 0 0 0 0 1 4 6 12 11 13 1 2 1 2 7 3 10 14 8 19 34 42 20 7 6 74 0 54 51 8 0 0 0 0
0 0 0 0 0 0 0 0 0 0 0 0 0 0 0 6 0 1 7 10 2 6 2 12 14 8 14 22 11 15 23 8 8 21 0 62 51 0 71 27 14 0 0 0 0
0 0 0 0 0 0 0 0 0 0 0 0 0 0 11 0 1 1 4 4 6 1 11 15 10 0 0 7 9 20 17 0 1 60 46 96 31 10 103 39 33 0 0 0 0
0 0 0 0 0 0 0 0 0 0 0 0 0 1 3 17 4 2 3 2 0 4 1 12 11 0 0 0 11 0 2 0 6 29 55 75 134 113 69 65 54 0 0 0 0
0 0 0 0 0 0 0 0 0 0 0 0 0 0 5 8 5 9 5 7 4 7 17 2 0 0 5 4 13 1 24 2 0 2 27 27 28 47 105 52 5 4 0 0 0
0 0 0 0 0 0 0 0 0 0 0 0 0 4 14 6 5 9 3 4 12 13 0 2 0 0 0 6 17 6 1 3 33 86 49 18 38 87 116 122 79 0 0 0 0
0 0 0 0 0 0 0 0 0 0 0 0 1 20 23 7 7 3 6 4 3 4 1 5 0 0 0 0 10 29 38 30 58 5 47 37 2 0 0 11 56 11 0 0 0
0 0 0 0 0 0 0 0 0 0 0 0 4 22 16 15 10 4 15 5 1 6 1 0 0 0 4 34 0 0 0 35 60 42 13 14 19 0 0 0 3 66 0 0 0
0 0 0 0 0 0 0 0 0 0 0 1 2 21 30 19 5 6 8 1 3 14 18 15 1 1 4 3 8 0 0 19 17 25 5 17 2 0 0 0 0 25 0 0 652
0 0 0 0 0 0 0 0 0 0 0 0 1 9 18 9 1 16 15 13 2 7 6 2 0 5 8 2 2 27 19 12 5 0 9 0 0 5 8 16 17 4 1 1049 1071
0 0 0 0 0 0 0 0 0 0 0 0 5 5 9 11 11 8 2 0 4 1 2 6 0 6 1 11 20 5 9 0 15 14 9 1 0 8 23 0 0 74 974 1014 699
0 0 0 0 0 0 0 0 0 0 0 0 3 12 22 8 11 2 4 1 12 1 1 2 0 0 0 4 10 0 0 0 1 2 0 0 0 1 3 215 367 766 969 609 486

GFSSW_con_mlcape_168.txt.gz
CAPE
1 2 2 2 2 0 2 2 1 1 0 0 0 0 0 0 0 0 0 0 0 0 0 0 0 0 0 0 0 0 0 0 0 0 0 0 0 0 0 0 0 0 0 312 682
2 3 1 1 1 2 1 0 0 0 0 0 0 0 0 0 0 0 0 0 0 0 0 0 0 0 0 0 0 0 0 0 0 0 0 0 0 0 0 0 0 0 0 3 99
1 3 1 3 3 1 0 0 0 0 0 0 0 0 0 0 0 0 0 0 0 0 0 0 0 0 0 0 0 0 0 0 0 0 0 0 0 0 0 0 0 0 0 0 0
2 2 2 1 1 0 0 0 0 0 0 0 0 0 0 0 0 0 0 0 0 0 0 0 0 0 0 0 0 0 0 0 0 0 0 0 0 0 0 0 0 0 0 0 0
1 2 2 2 0 0 0 0 0 0 0 0 0 0 0 0 0 0 0 0 0 0 0 0 0 0 0 0 0 0 0 0 0 0 0 0 0 0 0 0 0 0 0 0 0
0 1 1 1 1 0 0 0 0 0 0 0 0 0 0 0 0 0 0 0 0 0 0 0 0 0 0 0 0 0 0 0 0 0 0 0 0 0 0 0 0 0 0 0 0
0 0 0 0 0 0 0 0 0 0 0 0 0 0 0 0 0 0 0 0 0 0 0 0 0 0 0 0 0 0 0 0 0 0 0 0 0 0 0 0 0 0 0 0 0
0 0 0 0 0 0 0 0 0 0 0 0 0 0 0 0 0 0 0 0 0 0 0 0 0 0 0 0 0 0 0 0 0 0 0 0 0 0 0 0 0 0 0 0 0
0 0 0 0 0 0 0 0 0 0 0 0 0 0 0 0 0 0 0 0 0 0 0 0 0 0 0 0 0 0 0 0 0 0 0 0 0 0 0 0 0 0 0 0 0
0 0 0 0 0 0 0 0 0 0 0 0 0 0 0 0 0 0 0 0 0 0 0 2 2 2 4 4 0 3 4 5 11 24 9 0 0 0 0 0 0 0 0 0 0
0 0 0 0 0 0 0 0 0 0 0 0 0 0 0 0 0 0 0 0 0 0 0 2 11 4 7 3 2 11 18 14 10 2 7 2 0 0 3 0 0 0 0 0 0
0 0 0 0 0 0 0 0 0 0 0 0 0 0 0 0 0 0 0 0 0 6 8 17 12 9 8 1 11 13 15 19 1 15 25 13 3 7 11 15 2 0 0 0 0
0 0 0 0 0 0 0 0 0 0 0 0 0 0 0 0 0 1 0 0 0 1 2 10 0 8 9 10 24 25 27 25 10 24 17 43 1 27 2 30 4 0 0 0 0
0 0 0 0 0 0 0 0 0 0 0 0 0 0 0 0 2 6 0 0 0 0 4 6 0 4 9 11 15 6 21 17 20 35 7 82 9 1 42 57 75 8 0 0 0
0 0 0 0 0 0 0 0 0 0 5 0 0 0 0 1 4 1 21 0 0 0 2 0 1 5 3 0 4 3 19 19 45 22 8 13 37 0 53 90 84 10 0 0 0
0 0 0 0 0 0 0 0 0 0 1 0 0 0 0 0 5 4 14 13 18 10 4 0 0 2 0 0 0 0 14 15 26 33 15 0 15 0 23 46 64 90 35 0 0
0 0 0 0 0 0 0 0 0 0 0 0 0 0 0 1 4 9 16 8 13 5 0 6 1 1 14 3 5 5 4 2 6 28 0 3 9 0 54 81 52 27 22 1 0
0 0 0 0 0 0 0 0 0 0 0 0 0 0 0 0 1 13 3 0 11 14 8 7 10 0 0 0 4 5 3 0 2 0 1 4 0 22 151 184 131 20 17 19 0
0 0 0 0 0 0 0 0 0 0 0 0 0 0 0 0 0 7 4 0 17 9 2 1 4 0 0 0 0 0 2 3 3 0 20 0 0 67 9 10 118 84 8 1 11
0 0 0 0 0 0 0 0 0 0 0 0 0 0 1 7 9 9 10 2 1 10 3 1 0 0 0 0 0 2 10 14 1 0 5 0 63 91 117 144 14 66 31 2 8
0 0 0 0 0 0 0 0 0 0 0 0 0 0 9 13 5 18 14 2 16 3 1 4 0 0 0 0 0 3 3 3 14 9 7 12 19 20 120 20 0 0 103 38 0
0 0 0 0 0 0 0 0 0 0 0 0 0 2 17 9 16 17 13 21 9 1 2 1 0 0 0 0 0 2 6 8 3 0 2 14 0 45 44 3 0 14 103 96 1
0 0 0 0 0 0 0 0 0 0 0 0 0 0 5 18 29 13 15 21 19 5 0 0 0 0 0 3 2 10 6 6 13 1 0 0 0 146 17 9 2 2 49 42 0
0 2 0 0 0 0 0 0 0 0 0 0 0 0 5 12 0 22 1 19 15 1 16 3 0 0 1 0 0 1 10 16 19 9 1 7 8 10 21 3 10 0 59 1 0
3 3 4 1 0 3 0 0 0 0 0 0 0 0 3 5 29 2 0 0 13 0 1 1 0 6 6 5 5 7 9 20 18 0 19 0 1 16 10 16 29 1 7 1 822
7 4 0 0 0 1 11 0 0 0 0 0 0 0 13 23 17 1 0 1 14 0 0 2 1 6 1 0 1 6 0 1 1 1 2 3 0 20 0 3 8 3 16 79 502
2 0 0 0 0 2 8 0 0 0 0 0 0 4 7 0 0 0 0 0 10 0 3 1 0 0 0 0 0 0 2 0 0 2 2 0 0 0 0 0 0 55 137 290 529

GFSSW_con_mlcape_171.txt.gz
CAPE
1 1 2 4 3 1 0 0 0 0 0 0 0 0 0 1 0 0 0 0 0 0 0 0 0 0 0 0 0 0 0 0 0 0 0 0 0 0 0 0 0 0 0 1219 1250
0 1 2 2 1 1 0 0 0 0 0 0 0 0 0 0 0 0 0 0 0 0 0 0 0 0 0 0 0 0 0 0 0 0 0 0 0 0 0 0 0 0 37 1233 1299
0 0 0 1 1 0 0 0 0 0 0 0 0 0 0 0 0 0 0 0 0 0 0 0 0 0 0 0 0 0 0 0 0 0 0 0 0 0 0 0 0 0 0 16 687
0 0 0 0 0 0 0 0 0 0 0 0 0 0 0 0 0 0 0 0 0 0 0 0 0 0 0 0 0 0 0 0 0 0 0 0 0 0 0 0 0 0 0 0 0
0 0 0 0 0 0 0 0 0 0 0 0 0 0 0 0 0 0 0 0 0 0 0 0 0 0 0 0 0 0 0 0 0 0 0 0 0 0 0 0 0 0 0 0 0
0 0 0 0 0 0 0 0 0 0 0 0 0 0 0 0 0 0 0 0 0 0 0 0 0 0 0 0 0 0 0 0 0 0 0 0 0 0 0 0 0 0 0 0 0
0 0 2 0 0 0 0 0 0 0 0 0 0 0 0 0 0 0 0 0 0 0 0 0 0 0 0 0 0 0 0 0 0 0 0 0 0 0 0 0 0 0 0 0 0
0 0 0 0 0 0 0 0 0 0 0 0 0 0 0 0 0 0 0 0 0 0 0 0 0 0 0 0 0 0 0 0 0 0 0 0 0 0 0 0 0 0 0 0 0
0 0 0 0 0 0 0 0 0 0 0 0 0 0 0 0 0 0 0 0 0 0 0 0 0 0 0 0 0 0 0 0 0 0 0 0 0 0 0 0 0 0 0 0 0
0 0 0 0 0 0 0 0 0 0 0 0 0 0 0 0 0 0 0 0 0 0 0 0 0 0 0 0 0 0 0 0 0 0 0 0 0 0 0 0 0 0 0 0 0
0 0 0 0 0 0 0 0 0 0 0 0 0 0 0 0 0 0 0 0 0 0 0 0 0 0 0 0 0 0 0 0 0 0 0 0 0 0 0 0 0 0 0 0 0
0 0 0 0 0 0 0 0 0 0 0 0 0 0 0 0 0 0 0 0 0 0 0 1 4 0 1 2 0 0 0 0 0 0 2 0 0 0 0 0 0 0 0 0 0
0 0 0 0 0 0 0 0 0 0 0 0 0 0 0 0 0 0 0 0 0 0 0 0 0 0 0 0 0 0 7 4 0 10 1 17 0 0 0 0 0 0 0 0 0
0 0 0 0 0 0 0 0 0 0 0 0 0 0 0 0 0 3 0 0 0 0 0 0 0 0 0 0 1 1 11 6 6 6 0 5 0 0 0 0 0 1 0 0 0
0 0 0 0 0 0 0 0 0 0 0 0 0 0 0 0 0 0 0 0 0 0 1 0 0 0 1 0 0 0 0 0 0 0 0 2 19 0 0 0 0 0 13 8 0
0 0 0 0 0 0 0 0 0 0 0 0 0 0 0 0 0 0 0 0 0 0 0 0 0 3 0 1 2 0 4 0 0 8 2 0 0 0 0 0 0 0 9 1 7
0 0 0 0 0 0 0 0 0 0 0 0 0 0 0 0 0 0 0 0 0 1 0 0 0 0 4 0 0 0 1 0 2 0 0 0 0 0 0 0 0 0 0 1 6
0 0 0 0 0 0 0 0 0 0 0 0 0 0 0 0 0 0 0 0 4 0 0 3 0 0 0 0 0 0 0 1 0 2 0 0 0 0 0 2 9 8 46 19 0
0 0 0 0 0 0 0 0 0 0 0 0 0 0 0 0 1 0 0 0 3 4 2 2 4 0 0 0 0 0 0 3 4 0 0 0 0 0 1 0 1 63 36 14 0
0 0 0 0 0 0 0 0 0 0 0 0 0 0 0 0 0 0 10 0 3 13 0 1 0 0 0 0 0 0 0 0 0 0 0 0 0 9 63 57 8 12 10 0 0
0 0 0 0 0 0 0 0 0 0 0 0 0 0 0 0 0 8 12 1 1 2 3 0 1 0 0 0 0 0 0 5 2 14 8 0 0 0 0 0 0 0 0 0 0
0 0 0 0 0 0 0 0 0 0 0 0 0 0 0 0 0 9 0 12 15 21 7 0 0 0 0 0 0 0 0 1 8 0 0 0 0 0 0 6 0 0 0 0 1
0 0 0 0 0 0 0 0 0 0 0 0 0 0 0 0 0 1 0 31 27 19 0 1 0 0 0 0 0 1 6 3 8 2 0 1 0 0 0 0 0 0 0 0 0
0 0 0 0 0 0 0 0 3 0 0 0 0 0 0 0 0 8 3 0 1 6 0 1 1 0 0 0 0 0 0 0 3 7 5 0 0 0 0 1 3 0 0 0 36
0 0 2 0 0 0 0 0 0 0 0 0 0 0 0 0 4 0 0 0 0 1 3 3 0 2 0 0 1 0 0 1 0 1 0 0 0 0 0 0 1 7 20 35 141
2 7 1 0 0 0 0 0 1 1 0 0 0 0 0 6 0 5 0 0 0 0 0 3 1 1 0 0 0 8 0 2 1 0 1 1 1 0 0 0 0 0 28 37 111
0 0 0 0 1 0 0 0 1 3 0 0 0 0 0 0 0 0 0 11 31 1 0 2 1 0 0 0 0 0 0 0 2 1 2 1 0 0 0 0 0 0 1 7 47